Location: Goettingen
(51.5300°N, 9.9433°E)
Time: 14:38:32
(UTC+02:00)

ISS - Pass Details

Date: 03 July 2022
Orbit: 414 x 420 km, 51.6° (Epoch: 03 July)

Event Time Altitude Azimuth Distance (km) Brightness Sun altitude
Exits shadow 03:21:52 18° 205° (SSW) 1,087 -2.3 -11.2°
Maximum altitude 03:23:46 33° 151° (SSE) 722 -2.9 -11.0°
Drops below altitude 10° 03:26:51 10° 85° (E) 1,501 -0.5 -10.8°
Sets 03:29:04 0° 76° (ENE) 2,369 0.8 -10.6°
